Time,TemperatureF,DewpointF,PressureIn,WindDirection,WindDirectionDegrees,WindSpeedMPH,WindSpeedGustMPH,Humidity,HourlyPrecipIn,Conditions,Clouds,dailyrainin,SolarRadiationWatts/m^2,SoftwareType,DateUTC
2013-08-14 00:01:00,64.6,62.2,29.67,SSE,157,0.0,0.0,92,0.00,SCT,OVC,0.00,0.0,WeatherDisplay:10.37,2013-08-14 04:01:00,
2013-08-14 00:06:00,64.4,62.0,29.67,SSE,157,0.0,0.0,92,0.00,SCT,OVC,0.00,0.0,WeatherDisplay:10.37,2013-08-14 04:06:00,
2013-08-14 00:11:00,64.4,62.0,29.67,SSE,157,0.0,0.0,92,0.00,SCT,OVC,0.00,0.0,WeatherDisplay:10.37,2013-08-14 04:11:00,
2013-08-14 00:16:00,64.4,62.3,29.67,SSE,157,0.0,0.0,93,0.00,SCT,OVC,0.00,0.0,WeatherDisplay:10.37,2013-08-14 04:16:00,
2013-08-14 00:21:00,64.4,62.3,29.67,SSE,157,0.0,0.0,93,0.00,SCT,OVC,0.00,0.0,WeatherDisplay:10.37,2013-08-14 04:21:00,
2013-08-14 00:26:00,64.4,62.3,29.67,SSE,157,0.0,0.0,93,0.00,SCT,OVC,0.00,0.0,WeatherDisplay:10.37,2013-08-14 04:26:00,
2013-08-14 00:31:00,64.4,62.3,29.67,SSE,157,0.0,0.0,93,0.00,SCT,OVC,0.00,0.0,WeatherDisplay:10.37,2013-08-14 04:31:00,
2013-08-14 00:36:00,64.4,62.3,29.67,SSE,157,0.0,0.0,93,0.00,SCT,OVC,0.00,0.0,WeatherDisplay:10.37,2013-08-14 04:36:00,
2013-08-14 00:41:00,64.4,62.3,29.67,SSE,157,0.0,0.0,93,0.00,SCT,OVC,0.00,0.0,WeatherDisplay:10.37,2013-08-14 04:41:00,
2013-08-14 00:46:00,64.4,62.3,29.67,WSW,240,0.0,0.0,93,0.00,SCT,OVC,0.00,0.0,WeatherDisplay:10.37,2013-08-14 04:46:00,
2013-08-14 00:51:00,64.6,62.5,29.67,SE,130,0.0,0.0,93,0.00,SCT,OVC,0.00,0.0,WeatherDisplay:10.37,2013-08-14 04:51:00,
2013-08-14 00:56:00,64.8,62.7,29.67,SSE,160,0.0,0.0,93,0.00,SCT,OVC,0.00,0.0,WeatherDisplay:10.37,2013-08-14 04:56:00,
2013-08-14 01:01:00,64.9,62.9,29.67,SSE,160,0.0,0.0,93,0.00,SCT,OVC,0.00,0.0,WeatherDisplay:10.37,2013-08-14 05:01:00,
2013-08-14 01:06:00,65.1,63.0,29.67,SSE,153,0.0,0.0,93,0.00,CLR,OVC,0.00,0.0,WeatherDisplay:10.37,2013-08-14 05:06:00,
2013-08-14 01:11:00,65.3,63.5,29.67,SSE,153,0.0,0.0,94,0.00,CLR,OVC,0.00,0.0,WeatherDisplay:10.37,2013-08-14 05:11:00,
2013-08-14 01:16:00,65.5,63.7,29.67,SSW,195,0.0,0.0,94,0.00,CLR,OVC,0.00,0.0,WeatherDisplay:10.37,2013-08-14 05:16:00,
2013-08-14 01:21:00,65.5,63.7,29.67,SSW,196,0.0,0.0,94,0.00,CLR,OVC,0.00,0.0,WeatherDisplay:10.37,2013-08-14 05:21:00,
2013-08-14 01:26:00,65.7,63.9,29.67,SSW,196,0.0,0.0,94,0.00,CLR,OVC,0.00,0.0,WeatherDisplay:10.37,2013-08-14 05:26:00,
2013-08-14 01:31:00,65.7,63.9,29.67,SSW,195,0.0,0.0,94,0.00,CLR,OVC,0.00,0.0,WeatherDisplay:10.37,2013-08-14 05:31:00,
2013-08-14 01:36:00,65.7,63.9,29.67,NW,316,0.0,0.0,94,0.00,CLR,OVC,0.00,0.0,WeatherDisplay:10.37,2013-08-14 05:36:00,
2013-08-14 01:41:00,65.8,64.1,29.67,NW,317,0.0,0.0,94,0.00,CLR,OVC,0.00,0.0,WeatherDisplay:10.37,2013-08-14 05:41:00,
2013-08-14 01:46:00,65.8,64.1,29.67,SE,138,0.0,0.0,94,0.00,CLR,OVC,0.00,0.0,WeatherDisplay:10.37,2013-08-14 05:46:00,
2013-08-14 01:51:00,65.8,64.1,29.67,SSW,210,0.0,0.0,94,0.00,CLR,OVC,0.00,0.0,WeatherDisplay:10.37,2013-08-14 05:51:00,
2013-08-14 01:56:00,66.0,64.2,29.67,South,177,0.0,0.0,94,0.00,CLR,OVC,0.00,0.0,WeatherDisplay:10.37,2013-08-14 05:56:00,
2013-08-14 02:01:00,66.0,64.2,29.67,South,180,0.0,0.0,94,0.00,CLR,OVC,0.00,0.0,WeatherDisplay:10.37,2013-08-14 06:01:00,
2013-08-14 02:06:00,66.0,64.2,29.67,SSW,203,0.0,0.0,94,0.00,FEW,OVC,0.00,0.0,WeatherDisplay:10.37,2013-08-14 06:06:00,
2013-08-14 02:11:00,65.8,64.4,29.67,WNW,290,0.0,0.0,95,0.00,FEW,OVC,0.00,0.0,WeatherDisplay:10.37,2013-08-14 06:11:00,
2013-08-14 02:16:00,65.8,64.4,29.67,NW,310,0.0,0.0,95,0.00,FEW,OVC,0.00,0.0,WeatherDisplay:10.37,2013-08-14 06:16:00,
2013-08-14 02:21:00,65.8,64.4,29.67,NW,311,0.0,0.0,95,0.00,FEW,OVC,0.00,0.0,WeatherDisplay:10.37,2013-08-14 06:21:00,
2013-08-14 02:26:00,65.8,64.4,29.67,North,4,0.0,0.0,95,0.00,FEW,OVC,0.00,0.0,WeatherDisplay:10.37,2013-08-14 06:26:00,
2013-08-14 02:31:00,65.8,64.4,29.67,WNW,285,0.0,0.0,95,0.00,FEW,OVC,0.00,0.0,WeatherDisplay:10.37,2013-08-14 06:31:00,
2013-08-14 02:36:00,65.8,64.4,29.67,North,4,0.0,0.0,95,0.00,FEW,OVC,0.00,0.0,WeatherDisplay:10.37,2013-08-14 06:36:00,
2013-08-14 02:41:00,65.8,64.4,29.67,NW,305,0.0,0.0,95,0.00,FEW,OVC,0.00,0.0,WeatherDisplay:10.37,2013-08-14 06:41:00,
2013-08-14 02:46:00,65.7,64.2,29.67,North,356,0.0,0.0,95,0.00,FEW,OVC,0.00,0.0,WeatherDisplay:10.37,2013-08-14 06:46:00,
2013-08-14 02:51:00,65.7,64.2,29.67,NNE,23,3.5,3.5,95,0.00,FEW,OVC,0.00,0.0,WeatherDisplay:10.37,2013-08-14 06:51:00,
2013-08-14 02:56:00,65.7,64.2,29.67,WNW,294,0.0,0.0,95,0.00,FEW,OVC,0.00,0.0,WeatherDisplay:10.37,2013-08-14 06:56:00,
2013-08-14 03:01:00,65.5,64.0,29.67,NNW,348,0.0,0.0,95,0.00,FEW,OVC,0.00,0.0,WeatherDisplay:10.37,2013-08-14 07:01:00,
2013-08-14 03:06:00,65.5,64.0,29.67,WNW,303,0.0,0.0,95,0.00,SCT,OVC,0.00,0.0,WeatherDisplay:10.37,2013-08-14 07:06:00,
2013-08-14 03:11:00,65.5,64.0,29.67,NW,319,0.0,0.0,95,0.00,SCT,OVC,0.00,0.0,WeatherDisplay:10.37,2013-08-14 07:11:00,
2013-08-14 03:16:00,65.3,63.8,29.67,NW,319,0.0,0.0,95,0.00,SCT,OVC,0.00,0.0,WeatherDisplay:10.37,2013-08-14 07:16:00,
2013-08-14 03:21:00,65.3,63.8,29.67,NW,319,0.0,0.0,95,0.00,SCT,OVC,0.00,0.0,WeatherDisplay:10.37,2013-08-14 07:21:00,
2013-08-14 03:26:00,65.1,63.7,29.67,West,277,5.8,0.0,95,0.00,SCT,OVC,0.00,0.0,WeatherDisplay:10.37,2013-08-14 07:26:00,
2013-08-14 03:31:00,64.9,63.5,29.67,West,279,3.5,3.5,95,0.00,SCT,OVC,0.00,0.0,WeatherDisplay:10.37,2013-08-14 07:31:00,
2013-08-14 03:36:00,64.8,63.3,29.67,NW,322,5.8,5.8,95,0.00,SCT,OVC,0.00,0.0,WeatherDisplay:10.37,2013-08-14 07:36:00,
2013-08-14 03:41:00,64.6,63.1,29.67,WNW,302,8.1,8.1,95,0.00,SCT,OVC,0.00,0.0,WeatherDisplay:10.37,2013-08-14 07:41:00,
2013-08-14 03:46:00,64.6,63.1,29.67,North,4,4.0,4.0,95,0.00,SCT,OVC,0.00,0.0,WeatherDisplay:10.37,2013-08-14 07:46:00,
2013-08-14 03:51:00,64.6,63.1,29.67,NW,306,6.9,6.9,95,0.00,SCT,OVC,0.00,0.0,WeatherDisplay:10.37,2013-08-14 07:51:00,
2013-08-14 03:56:00,64.6,62.8,29.67,NW,305,3.5,3.5,94,0.00,SCT,OVC,0.00,0.0,WeatherDisplay:10.37,2013-08-14 07:56:00,
2013-08-14 04:01:00,64.6,62.8,29.67,WNW,299,5.8,5.8,94,0.00,SCT,OVC,0.00,0.0,WeatherDisplay:10.37,2013-08-14 08:01:00,
2013-08-14 04:06:00,64.4,62.3,29.67,WNW,295,3.5,0.0,93,0.00,CLR,OVC,0.00,0.0,WeatherDisplay:10.37,2013-08-14 08:06:00,
2013-08-14 04:11:00,64.4,62.3,29.67,NNW,332,5.8,5.8,93,0.00,CLR,OVC,0.00,0.0,WeatherDisplay:10.37,2013-08-14 08:11:00,
2013-08-14 04:16:00,64.2,61.8,29.67,WSW,237,0.0,0.0,92,0.00,CLR,OVC,0.00,0.0,WeatherDisplay:10.37,2013-08-14 08:16:00,
2013-08-14 04:21:00,64.0,61.4,29.67,WNW,291,3.5,0.0,91,0.00,CLR,OVC,0.00,0.0,WeatherDisplay:10.37,2013-08-14 08:21:00,
2013-08-14 04:26:00,63.9,61.2,29.67,WNW,302,3.5,3.5,91,0.00,CLR,OVC,0.00,0.0,WeatherDisplay:10.37,2013-08-14 08:26:00,
2013-08-14 04:31:00,63.7,60.7,29.67,NW,305,0.0,0.0,90,0.00,CLR,OVC,0.00,0.0,WeatherDisplay:10.37,2013-08-14 08:31:00,
2013-08-14 04:36:00,63.5,60.2,29.67,NW,322,3.5,3.5,89,0.00,CLR,OVC,0.00,0.0,WeatherDisplay:10.37,2013-08-14 08:36:00,
2013-08-14 04:41:00,63.3,59.7,29.67,NW,309,8.1,8.1,88,0.00,CLR,OVC,0.00,0.0,WeatherDisplay:10.37,2013-08-14 08:41:00,
2013-08-14 04:46:00,63.1,59.5,29.67,NW,321,3.5,0.0,88,0.00,CLR,OVC,0.00,0.0,WeatherDisplay:10.37,2013-08-14 08:46:00,
2013-08-14 04:51:00,63.0,59.0,29.67,WNW,290,0.0,0.0,87,0.00,CLR,OVC,0.00,0.0,WeatherDisplay:10.37,2013-08-14 08:51:00,
2013-08-14 04:56:00,62.8,58.9,29.70,NW,321,4.6,4.6,87,0.00,CLR,OVC,0.00,0.0,WeatherDisplay:10.37,2013-08-14 08:56:00,
2013-08-14 05:00:00,62.6,58.4,29.70,NNW,335,2.3,0.0,86,0.00,CLR,OVC,0.00,0.0,WeatherDisplay:10.37,2013-08-14 09:00:00,
2013-08-14 05:05:00,62.4,58.2,29.70,West,279,4.6,4.6,86,0.00,FEW,OVC,0.00,0.0,WeatherDisplay:10.37,2013-08-14 09:05:00,
2013-08-14 05:10:00,62.2,57.7,29.70,WNW,285,3.5,3.5,85,0.00,FEW,OVC,0.00,0.0,WeatherDisplay:10.37,2013-08-14 09:10:00,
2013-08-14 05:15:00,62.1,57.5,29.70,NNW,342,0.0,0.0,85,0.00,FEW,OVC,0.00,0.0,WeatherDisplay:10.37,2013-08-14 09:15:00,
2013-08-14 05:20:00,61.9,57.0,29.70,NW,317,3.5,3.5,84,0.00,FEW,OVC,0.00,0.0,WeatherDisplay:10.37,2013-08-14 09:20:00,
2013-08-14 05:25:00,61.7,56.8,29.70,NNW,341,5.8,5.8,84,0.00,FEW,OVC,0.00,0.0,WeatherDisplay:10.37,2013-08-14 09:25:00,
2013-08-14 05:30:00,61.7,56.5,29.70,North,353,6.9,6.9,83,0.00,FEW,OVC,0.00,0.0,WeatherDisplay:10.37,2013-08-14 09:30:00,
2013-08-14 05:35:00,61.5,56.3,29.70,North,353,3.5,3.6,83,0.00,FEW,OVC,0.00,0.0,WeatherDisplay:10.37,2013-08-14 09:35:00,
2013-08-14 05:40:00,61.3,55.8,29.70,NW,320,3.5,3.5,82,0.00,FEW,OVC,0.00,0.0,WeatherDisplay:10.37,2013-08-14 09:40:00,
2013-08-14 05:45:00,61.2,55.3,29.70,NW,325,3.5,3.5,81,0.00,FEW,OVC,0.00,0.0,WeatherDisplay:10.37,2013-08-14 09:45:00,
2013-08-14 05:50:00,61.0,54.8,29.70,NW,313,3.5,3.5,80,0.00,FEW,OVC,0.00,0.0,WeatherDisplay:10.37,2013-08-14 09:50:00,
2013-08-14 05:55:00,61.0,54.8,29.70,WNW,295,6.9,6.9,80,0.00,FEW,OVC,0.00,0.0,WeatherDisplay:10.37,2013-08-14 09:55:00,
2013-08-14 06:00:00,60.8,54.6,29.70,North,359,0.0,4.5,80,0.00,FEW,OVC,0.00,0.0,WeatherDisplay:10.37,2013-08-14 10:00:00,
2013-08-14 06:05:00,60.6,54.4,29.70,WNW,299,5.8,5.8,80,0.00,BKN,OVC,0.00,0.0,WeatherDisplay:10.37,2013-08-14 10:05:00,
2013-08-14 06:10:00,60.6,54.1,29.70,NW,307,3.5,3.5,79,0.00,BKN,OVC,0.00,0.0,WeatherDisplay:10.37,2013-08-14 10:10:00,
2013-08-14 06:15:00,60.4,53.5,29.70,NW,308,5.8,5.8,78,0.00,BKN,OVC,0.00,0.0,WeatherDisplay:10.37,2013-08-14 10:15:00,
2013-08-14 06:20:00,60.3,53.0,29.70,NW,305,3.5,3.5,77,0.00,BKN,OVC,0.00,0.0,WeatherDisplay:10.37,2013-08-14 10:20:00,
2013-08-14 06:25:00,60.1,52.8,29.70,NNW,338,3.5,3.5,77,0.00,BKN,OVC,0.00,0.0,WeatherDisplay:10.37,2013-08-14 10:25:00,
2013-08-14 06:30:00,60.1,52.5,29.70,NNW,340,5.8,5.8,76,0.00,BKN,OVC,0.00,0.0,WeatherDisplay:10.37,2013-08-14 10:30:00,
2013-08-14 06:35:00,59.9,52.3,29.70,WNW,295,4.6,4.6,76,0.00,BKN,OVC,0.00,0.0,WeatherDisplay:10.37,2013-08-14 10:35:00,
2013-08-14 06:40:00,59.7,52.1,29.73,NNW,329,3.5,3.5,76,0.00,BKN,OVC,0.00,0.0,WeatherDisplay:10.37,2013-08-14 10:40:00,
2013-08-14 06:45:00,59.7,52.1,29.73,West,277,4.6,4.6,76,0.00,BKN,OVC,0.00,0.0,WeatherDisplay:10.37,2013-08-14 10:45:00,
2013-08-14 06:50:00,59.5,51.6,29.73,NW,315,3.5,0.0,75,0.00,BKN,OVC,0.00,0.0,WeatherDisplay:10.37,2013-08-14 10:50:00,
2013-08-14 06:55:00,59.5,51.6,29.73,WNW,296,3.5,3.5,75,0.00,BKN,OVC,0.00,0.0,WeatherDisplay:10.37,2013-08-14 10:55:00,
2013-08-14 07:00:00,59.4,51.4,29.73,North,352,4.6,4.6,75,0.00,BKN,OVC,0.00,0.0,WeatherDisplay:10.37,2013-08-14 11:00:00,
2013-08-14 07:05:00,59.4,51.4,29.73,NW,304,3.5,3.5,75,0.00,BKN,OVC,0.00,0.0,WeatherDisplay:10.37,2013-08-14 11:05:00,
2013-08-14 07:10:00,59.4,51.4,29.73,North,359,3.6,3.6,75,0.00,BKN,OVC,0.00,0.0,WeatherDisplay:10.37,2013-08-14 11:10:00,
2013-08-14 07:15:00,59.4,51.1,29.73,NW,320,5.8,5.8,74,0.00,BKN,OVC,0.00,0.0,WeatherDisplay:10.37,2013-08-14 11:15:00,
2013-08-14 07:20:00,59.4,51.1,29.73,NNW,344,5.8,5.8,74,0.00,BKN,OVC,0.00,0.0,WeatherDisplay:10.37,2013-08-14 11:20:00,
2013-08-14 07:25:00,59.4,51.1,29.73,WNW,298,2.3,0.0,74,0.00,BKN,OVC,0.00,0.0,WeatherDisplay:10.37,2013-08-14 11:25:00,
2013-08-14 07:30:00,59.5,51.2,29.73,NNW,331,3.5,0.0,74,0.00,BKN,OVC,0.00,0.0,WeatherDisplay:10.37,2013-08-14 11:30:00,
2013-08-14 07:35:00,59.5,51.2,29.73,NW,309,5.8,5.8,74,0.00,BKN,OVC,0.00,0.0,WeatherDisplay:10.37,2013-08-14 11:35:00,
2013-08-14 07:40:00,59.7,51.4,29.73,NNW,330,3.5,3.5,74,0.00,BKN,OVC,0.00,0.0,WeatherDisplay:10.37,2013-08-14 11:40:00,
2013-08-14 07:45:00,59.7,51.0,29.73,WNW,284,6.9,6.9,73,0.00,BKN,OVC,0.00,0.0,WeatherDisplay:10.37,2013-08-14 11:45:00,
2013-08-14 07:50:00,59.9,51.6,29.73,North,357,8.1,8.1,74,0.00,BKN,OVC,0.00,0.0,WeatherDisplay:10.37,2013-08-14 11:50:00,
2013-08-14 07:55:00,60.1,51.8,29.73,WNW,292,9.2,9.2,74,0.00,BKN,OVC,0.00,0.0,WeatherDisplay:10.37,2013-08-14 11:55:00,
2013-08-14 08:00:00,60.3,51.6,29.73,NNW,334,5.8,5.8,73,0.00,BKN,OVC,0.00,0.0,WeatherDisplay:10.37,2013-08-14 12:00:00,
2013-08-14 08:05:00,60.4,51.4,29.73,NW,326,9.2,9.2,72,0.00,SCT,OVC,0.00,0.0,WeatherDisplay:10.37,2013-08-14 12:05:00,
2013-08-14 08:10:00,60.4,51.4,29.73,NNW,330,10.4,10.4,72,0.00,SCT,OVC,0.00,0.0,WeatherDisplay:10.37,2013-08-14 12:10:00,
2013-08-14 08:15:00,60.6,51.5,29.73,NW,325,8.0,8.0,72,0.00,SCT,OVC,0.00,0.0,WeatherDisplay:10.37,2013-08-14 12:15:00,
2013-08-14 08:20:00,60.8,51.3,29.73,WNW,299,6.9,6.9,71,0.00,SCT,OVC,0.00,0.0,WeatherDisplay:10.37,2013-08-14 12:20:00,
2013-08-14 08:25:00,61.0,51.5,29.73,NW,317,5.0,10.0,71,0.00,SCT,OVC,0.00,0.0,WeatherDisplay:10.37,2013-08-14 12:25:00,
2013-08-14 08:30:00,61.2,51.7,29.73,NW,322,5.8,5.8,71,0.00,SCT,OVC,0.00,0.0,WeatherDisplay:10.37,2013-08-14 12:30:00,
2013-08-14 08:35:00,61.2,51.7,29.73,West,273,4.9,4.9,71,0.00,SCT,OVC,0.00,0.0,WeatherDisplay:10.37,2013-08-14 12:35:00,
2013-08-14 08:40:00,61.3,51.9,29.73,NNW,346,10.4,10.4,71,0.00,SCT,OVC,0.00,0.0,WeatherDisplay:10.37,2013-08-14 12:40:00,
2013-08-14 08:45:00,61.5,52.0,29.73,West,277,8.1,8.1,71,0.00,SCT,OVC,0.00,0.0,WeatherDisplay:10.37,2013-08-14 12:45:00,
2013-08-14 08:50:00,61.7,51.8,29.73,NE,51,3.5,3.5,70,0.00,SCT,OVC,0.00,0.0,WeatherDisplay:10.37,2013-08-14 12:50:00,
2013-08-14 08:55:00,61.9,51.6,29.73,NW,313,1.0,6.0,69,0.00,SCT,OVC,0.00,0.0,WeatherDisplay:10.37,2013-08-14 12:55:00,
2013-08-14 09:00:00,62.1,51.8,29.73,NNW,331,3.5,5.4,69,0.00,SCT,OVC,0.00,0.0,WeatherDisplay:10.37,2013-08-14 13:00:00,
2013-08-14 09:05:00,62.2,51.9,29.73,NW,319,5.0,10.0,69,0.00,SCT,OVC,0.00,0.0,WeatherDisplay:10.37,2013-08-14 13:05:00,
2013-08-14 09:10:00,62.4,51.7,29.73,NW,321,6.0,10.0,68,0.00,SCT,OVC,0.00,0.0,WeatherDisplay:10.37,2013-08-14 13:10:00,
2013-08-14 09:15:00,62.6,51.9,29.73,NNW,341,8.1,8.1,68,0.00,SCT,OVC,0.00,0.0,WeatherDisplay:10.37,2013-08-14 13:15:00,
2013-08-14 09:20:00,62.7,51.6,29.73,NNW,327,6.0,12.0,67,0.00,SCT,OVC,0.00,0.0,WeatherDisplay:10.37,2013-08-14 13:20:00,
2013-08-14 09:25:00,63.0,51.4,29.73,NNE,19,5.8,5.8,66,0.00,SCT,OVC,0.00,0.0,WeatherDisplay:10.37,2013-08-14 13:25:00,
2013-08-14 09:30:00,63.1,51.2,29.73,NW,323,5.8,5.8,65,0.00,SCT,OVC,0.00,0.0,WeatherDisplay:10.37,2013-08-14 13:30:00,
2013-08-14 09:35:00,63.3,51.8,29.73,NW,322,5.8,5.8,66,0.00,SCT,OVC,0.00,0.0,WeatherDisplay:10.37,2013-08-14 13:35:00,
2013-08-14 09:40:00,63.9,51.9,29.73,WNW,285,3.5,4.5,65,0.00,SCT,OVC,0.00,0.0,WeatherDisplay:10.37,2013-08-14 13:40:00,
2013-08-14 09:45:00,64.0,51.6,29.73,NW,324,5.0,13.0,64,0.00,SCT,OVC,0.00,0.0,WeatherDisplay:10.37,2013-08-14 13:45:00,
2013-08-14 09:50:00,64.6,52.1,29.73,NNW,339,8.1,8.1,64,0.00,SCT,OVC,0.00,0.0,WeatherDisplay:10.37,2013-08-14 13:50:00,
2013-08-14 09:55:00,64.9,52.0,29.73,NNW,339,10.4,10.4,63,0.00,SCT,OVC,0.00,0.0,WeatherDisplay:10.37,2013-08-14 13:55:00,
2013-08-14 10:00:00,65.1,52.2,29.73,WNW,283,10.4,10.4,63,0.00,SCT,OVC,0.00,0.0,WeatherDisplay:10.37,2013-08-14 14:00:00,
2013-08-14 10:05:00,65.8,52.9,29.73,NNW,347,5.8,5.8,63,0.00,SCT,OVC,0.00,0.0,WeatherDisplay:10.37,2013-08-14 14:05:00,
2013-08-14 10:10:00,66.6,53.6,29.73,NNE,16,10.4,10.4,63,0.00,SCT,OVC,0.00,0.0,WeatherDisplay:10.37,2013-08-14 14:10:00,
2013-08-14 10:15:00,66.9,53.5,29.73,WNW,298,8.1,8.1,62,0.00,SCT,OVC,0.00,0.0,WeatherDisplay:10.37,2013-08-14 14:15:00,
2013-08-14 10:20:00,67.3,53.4,29.73,NNW,343,4.6,4.6,61,0.00,SCT,OVC,0.00,0.0,WeatherDisplay:10.37,2013-08-14 14:20:00,
2013-08-14 10:25:00,67.5,53.1,29.73,WNW,282,6.9,6.9,60,0.00,SCT,OVC,0.00,0.0,WeatherDisplay:10.37,2013-08-14 14:25:00,
2013-08-14 10:30:00,67.5,53.1,29.73,NW,308,8.1,8.1,60,0.00,SCT,OVC,0.00,0.0,WeatherDisplay:10.37,2013-08-14 14:30:00,
2013-08-14 10:35:00,67.8,53.4,29.73,North,3,3.5,3.5,60,0.00,SCT,OVC,0.00,0.0,WeatherDisplay:10.37,2013-08-14 14:35:00,
2013-08-14 10:40:00,68.2,53.8,29.73,NW,315,8.1,8.1,60,0.00,SCT,OVC,0.00,0.0,WeatherDisplay:10.37,2013-08-14 14:40:00,
2013-08-14 10:45:00,68.2,53.3,29.73,NW,321,11.5,11.5,59,0.00,SCT,OVC,0.00,0.0,WeatherDisplay:10.37,2013-08-14 14:45:00,
2013-08-14 10:50:00,68.4,53.5,29.73,SW,227,5.8,5.8,59,0.00,SCT,OVC,0.00,0.0,WeatherDisplay:10.37,2013-08-14 14:50:00,
2013-08-14 10:55:00,68.7,53.8,29.73,WSW,238,11.5,11.5,59,0.00,SCT,OVC,0.00,0.0,WeatherDisplay:10.37,2013-08-14 14:55:00,
2013-08-14 11:00:00,68.9,54.0,29.73,NW,319,8.1,8.1,59,0.00,SCT,OVC,0.00,0.0,WeatherDisplay:10.37,2013-08-14 15:00:00,
2013-08-14 11:05:00,69.3,54.3,29.73,NNW,346,10.4,10.4,59,0.00,SCT,OVC,0.00,0.0,WeatherDisplay:10.37,2013-08-14 15:05:00,
2013-08-14 11:10:00,69.4,53.5,29.73,North,351,8.1,8.1,57,0.00,SCT,OVC,0.00,0.0,WeatherDisplay:10.37,2013-08-14 15:10:00,
2013-08-14 11:15:00,69.6,53.2,29.73,WNW,298,6.9,6.9,56,0.00,SCT,OVC,0.00,0.0,WeatherDisplay:10.37,2013-08-14 15:15:00,
2013-08-14 11:20:00,69.6,53.2,29.73,North,2,10.4,10.4,56,0.00,SCT,OVC,0.00,0.0,WeatherDisplay:10.37,2013-08-14 15:20:00,
2013-08-14 11:25:00,70.2,53.7,29.73,NW,316,4.6,4.9,56,0.00,SCT,OVC,0.00,0.0,WeatherDisplay:10.37,2013-08-14 15:25:00,
2013-08-14 11:30:00,70.5,53.6,29.73,WSW,250,4.6,4.6,55,0.00,SCT,OVC,0.00,0.0,WeatherDisplay:10.37,2013-08-14 15:30:00,
2013-08-14 11:35:00,71.1,54.6,29.73,NNW,333,5.8,5.8,56,0.00,SCT,OVC,0.00,0.0,WeatherDisplay:10.37,2013-08-14 15:35:00,
2013-08-14 11:40:00,71.1,53.6,29.73,West,280,5.8,5.8,54,0.00,SCT,OVC,0.00,0.0,WeatherDisplay:10.37,2013-08-14 15:40:00,
2013-08-14 11:45:00,71.2,53.7,29.73,WSW,256,10.4,10.4,54,0.00,SCT,OVC,0.00,0.0,WeatherDisplay:10.37,2013-08-14 15:45:00,
2013-08-14 11:50:00,71.4,53.9,29.73,NNW,329,5.8,5.8,54,0.00,SCT,OVC,0.00,0.0,WeatherDisplay:10.37,2013-08-14 15:50:00,
2013-08-14 11:55:00,71.6,53.6,29.73,NW,308,9.2,9.2,53,0.00,SCT,OVC,0.00,0.0,WeatherDisplay:10.37,2013-08-14 15:55:00,
2013-08-14 12:00:00,71.8,53.2,29.73,WNW,298,4.6,4.6,52,0.00,SCT,OVC,0.00,0.0,WeatherDisplay:10.37,2013-08-14 16:00:00,
2013-08-14 12:05:00,72.0,53.9,29.73,NW,315,5.8,5.8,53,0.00,SCT,OVC,0.00,0.0,WeatherDisplay:10.37,2013-08-14 16:05:00,
2013-08-14 12:10:00,72.1,53.5,29.73,West,261,5.8,5.8,52,0.00,SCT,OVC,0.00,0.0,WeatherDisplay:10.37,2013-08-14 16:10:00,
2013-08-14 12:15:00,72.3,53.7,29.73,North,2,9.2,9.2,52,0.00,SCT,OVC,0.00,0.0,WeatherDisplay:10.37,2013-08-14 16:15:00,
2013-08-14 12:20:00,72.5,53.9,29.73,NW,309,5.8,5.8,52,0.00,SCT,OVC,0.00,0.0,WeatherDisplay:10.37,2013-08-14 16:20:00,
2013-08-14 12:25:00,72.5,53.9,29.73,NW,322,5.8,5.8,52,0.00,SCT,OVC,0.00,0.0,WeatherDisplay:10.37,2013-08-14 16:25:00,
2013-08-14 12:30:00,72.7,53.5,29.73,WNW,285,8.1,8.1,51,0.00,SCT,OVC,0.00,0.0,WeatherDisplay:10.37,2013-08-14 16:30:00,
2013-08-14 12:35:00,72.7,53.5,29.73,NW,310,11.5,11.5,51,0.00,SCT,OVC,0.00,0.0,WeatherDisplay:10.37,2013-08-14 16:35:00,
2013-08-14 12:40:00,72.7,53.5,29.73,West,265,8.1,8.1,51,0.00,SCT,OVC,0.00,0.0,WeatherDisplay:10.37,2013-08-14 16:40:00,
2013-08-14 12:45:00,73.0,53.8,29.73,SSW,209,5.8,5.8,51,0.00,SCT,OVC,0.00,0.0,WeatherDisplay:10.37,2013-08-14 16:45:00,
2013-08-14 12:51:00,72.9,53.7,29.73,West,261,3.5,4.0,51,0.00,SCT,OVC,0.00,0.0,WeatherDisplay:10.37,2013-08-14 16:51:00,
2013-08-14 12:56:00,72.1,53.0,29.76,NW,322,10.4,10.4,51,0.00,SCT,OVC,0.00,0.0,WeatherDisplay:10.37,2013-08-14 16:56:00,
2013-08-14 13:02:00,72.0,52.8,29.76,WNW,292,12.7,12.7,51,0.00,SCT,OVC,0.00,0.0,WeatherDisplay:10.37,2013-08-14 17:02:00,
2013-08-14 13:07:00,72.0,52.3,29.76,West,259,8.1,8.1,50,0.00,SCT,OVC,0.00,0.0,WeatherDisplay:10.37,2013-08-14 17:07:00,
2013-08-14 13:12:00,72.0,52.3,29.73,WNW,288,3.5,3.6,50,0.00,SCT,OVC,0.00,0.0,WeatherDisplay:10.37,2013-08-14 17:12:00,
2013-08-14 13:17:00,72.0,52.8,29.73,NW,319,8.1,8.1,51,0.00,SCT,OVC,0.00,0.0,WeatherDisplay:10.37,2013-08-14 17:17:00,
2013-08-14 13:22:00,71.8,52.1,29.73,NW,319,8.1,8.1,50,0.00,SCT,OVC,0.00,0.0,WeatherDisplay:10.37,2013-08-14 17:22:00,
2013-08-14 13:27:00,72.0,52.3,29.76,NW,315,9.2,9.2,50,0.00,SCT,OVC,0.00,0.0,WeatherDisplay:10.37,2013-08-14 17:27:00,
2013-08-14 13:32:00,72.1,52.5,29.76,West,265,8.1,8.1,50,0.00,SCT,OVC,0.00,0.0,WeatherDisplay:10.37,2013-08-14 17:32:00,
2013-08-14 13:37:00,72.3,52.6,29.76,NW,313,10.4,10.4,50,0.00,SCT,OVC,0.00,0.0,WeatherDisplay:10.37,2013-08-14 17:37:00,
2013-08-14 13:42:00,72.5,52.8,29.73,NNW,333,8.1,8.1,50,0.00,SCT,OVC,0.00,0.0,WeatherDisplay:10.37,2013-08-14 17:42:00,
2013-08-14 13:47:00,72.9,53.7,29.73,West,274,3.5,3.5,51,0.00,SCT,OVC,0.00,0.0,WeatherDisplay:10.37,2013-08-14 17:47:00,
2013-08-14 13:52:00,73.2,54.0,29.73,NW,316,4.6,4.6,51,0.00,SCT,OVC,0.00,0.0,WeatherDisplay:10.37,2013-08-14 17:52:00,
2013-08-14 13:57:00,73.4,53.6,29.73,NW,309,5.8,5.8,50,0.00,SCT,OVC,0.00,0.0,WeatherDisplay:10.37,2013-08-14 17:57:00,
2013-08-14 14:02:00,73.4,53.6,29.73,NNW,333,12.7,12.7,50,0.00,SCT,OVC,0.00,0.0,WeatherDisplay:10.37,2013-08-14 18:02:00,
2013-08-14 14:07:00,73.2,53.5,29.73,SW,228,11.5,11.5,50,0.00,SCT,OVC,0.00,0.0,WeatherDisplay:10.37,2013-08-14 18:07:00,
2013-08-14 14:14:00,73.0,53.3,29.73,WNW,300,8.1,8.1,50,0.00,SCT,OVC,0.00,0.0,WeatherDisplay:10.37,2013-08-14 18:14:00,
2013-08-14 14:19:00,73.0,52.7,29.73,NW,311,5.8,5.8,49,0.00,SCT,OVC,0.00,0.0,WeatherDisplay:10.37,2013-08-14 18:19:00,
2013-08-14 14:24:00,73.2,52.9,29.73,West,269,8.1,8.1,49,0.00,SCT,OVC,0.00,0.0,WeatherDisplay:10.37,2013-08-14 18:24:00,
2013-08-14 14:29:00,73.4,53.1,29.73,NNW,340,10.4,10.4,49,0.00,SCT,OVC,0.00,0.0,WeatherDisplay:10.37,2013-08-14 18:29:00,
2013-08-14 14:35:00,73.8,53.4,29.73,NW,311,10.4,10.4,49,0.00,SCT,OVC,0.00,0.0,WeatherDisplay:10.37,2013-08-14 18:35:00,
2013-08-14 14:40:00,73.9,53.6,29.73,NW,307,5.8,6.3,49,0.00,SCT,OVC,0.00,0.0,WeatherDisplay:10.37,2013-08-14 18:40:00,
2013-08-14 14:45:00,74.1,53.7,29.73,NNW,342,10.4,10.4,49,0.00,SCT,OVC,0.00,0.0,WeatherDisplay:10.37,2013-08-14 18:45:00,
2013-08-14 14:50:00,74.1,53.2,29.73,NW,322,12.7,12.7,48,0.00,SCT,OVC,0.00,0.0,WeatherDisplay:10.37,2013-08-14 18:50:00,
2013-08-14 14:56:00,73.9,53.0,29.73,NW,311,5.8,7.6,48,0.00,SCT,OVC,0.00,0.0,WeatherDisplay:10.37,2013-08-14 18:56:00,
2013-08-14 15:01:00,73.8,52.8,29.73,North,357,10.4,10.4,48,0.00,SCT,OVC,0.00,0.0,WeatherDisplay:10.37,2013-08-14 19:01:00,
2013-08-14 15:06:00,74.0,53.6,29.73,NNW,328,5.0,8.0,49,0.00,SCT,OVC,0.00,0.0,WeatherDisplay:10.37,2013-08-14 19:06:00,
2013-08-14 15:13:00,74.3,53.3,29.73,West,277,15.0,15.0,48,0.00,SCT,OVC,0.00,0.0,WeatherDisplay:10.37,2013-08-14 19:13:00,
2013-08-14 15:18:00,74.3,53.9,29.73,NNW,343,11.5,11.5,49,0.00,SCT,OVC,0.00,0.0,WeatherDisplay:10.37,2013-08-14 19:18:00,
2013-08-14 15:23:00,73.8,53.4,29.73,NW,318,11.5,11.5,49,0.00,SCT,OVC,0.00,0.0,WeatherDisplay:10.37,2013-08-14 19:23:00,
2013-08-14 15:28:00,73.0,52.7,29.76,WNW,291,15.0,15.0,49,0.00,SCT,OVC,0.00,0.0,WeatherDisplay:10.37,2013-08-14 19:28:00,
2013-08-14 15:33:00,72.9,52.6,29.76,NNW,340,5.8,5.8,49,0.00,SCT,OVC,0.00,0.0,WeatherDisplay:10.37,2013-08-14 19:33:00,
2013-08-14 15:38:00,73.4,52.5,29.76,NW,324,9.2,9.2,48,0.00,SCT,OVC,0.00,0.0,WeatherDisplay:10.37,2013-08-14 19:38:00,
2013-08-14 15:43:00,73.6,53.2,29.76,WNW,299,11.5,11.5,49,0.00,SCT,OVC,0.00,0.0,WeatherDisplay:10.37,2013-08-14 19:43:00,
2013-08-14 15:48:00,73.4,52.5,29.76,NW,306,5.8,5.8,48,0.00,SCT,OVC,0.00,0.0,WeatherDisplay:10.37,2013-08-14 19:48:00,
2013-08-14 15:53:00,72.9,52.6,29.76,NNW,346,9.2,9.2,49,0.00,SCT,OVC,0.00,0.0,WeatherDisplay:10.37,2013-08-14 19:53:00,
2013-08-14 15:58:00,72.1,51.9,29.76,West,275,8.1,8.1,49,0.00,SCT,OVC,0.00,0.0,WeatherDisplay:10.37,2013-08-14 19:58:00,
2013-08-14 16:04:00,72.0,51.8,29.76,North,355,8.1,8.1,49,0.00,SCT,OVC,0.00,0.0,WeatherDisplay:10.37,2013-08-14 20:04:00,
2013-08-14 16:09:00,72.0,51.8,29.76,West,276,5.8,5.8,49,0.00,SCT,OVC,0.00,0.0,WeatherDisplay:10.37,2013-08-14 20:09:00,
2013-08-14 16:14:00,72.1,52.5,29.76,NW,317,8.1,8.1,50,0.00,SCT,OVC,0.00,0.0,WeatherDisplay:10.37,2013-08-14 20:14:00,
2013-08-14 16:19:00,72.7,53.0,29.76,NW,304,16.1,16.1,50,0.00,SCT,OVC,0.00,0.0,WeatherDisplay:10.37,2013-08-14 20:19:00,
2013-08-14 16:24:00,73.0,53.3,29.76,NW,320,9.2,9.2,50,0.00,SCT,OVC,0.00,0.0,WeatherDisplay:10.37,2013-08-14 20:24:00,
2013-08-14 16:30:00,73.2,52.9,29.76,NW,310,8.3,8.3,49,0.00,SCT,OVC,0.00,0.0,WeatherDisplay:10.37,2013-08-14 20:30:00,
2013-08-14 16:35:00,73.6,53.2,29.76,WNW,282,5.8,5.8,49,0.00,SCT,OVC,0.00,0.0,WeatherDisplay:10.37,2013-08-14 20:35:00,
2013-08-14 16:40:00,73.8,53.4,29.76,North,6,5.8,5.8,49,0.00,SCT,OVC,0.00,0.0,WeatherDisplay:10.37,2013-08-14 20:40:00,
2013-08-14 16:45:00,73.9,53.6,29.76,NNW,346,8.1,8.1,49,0.00,SCT,OVC,0.00,0.0,WeatherDisplay:10.37,2013-08-14 20:45:00,
2013-08-14 16:50:00,73.9,53.6,29.76,West,269,8.1,8.1,49,0.00,SCT,OVC,0.00,0.0,WeatherDisplay:10.37,2013-08-14 20:50:00,
2013-08-14 16:55:00,74.3,53.9,29.76,WNW,298,3.5,3.5,49,0.00,SCT,OVC,0.00,0.0,WeatherDisplay:10.37,2013-08-14 20:55:00,
2013-08-14 17:00:00,74.3,53.9,29.76,WSW,250,8.1,8.1,49,0.00,SCT,OVC,0.00,0.0,WeatherDisplay:10.37,2013-08-14 21:00:00,
2013-08-14 17:05:00,74.1,53.7,29.76,NW,325,7.0,13.0,49,0.00,SCT,OVC,0.00,0.0,WeatherDisplay:10.37,2013-08-14 21:05:00,
2013-08-14 17:10:00,73.9,53.0,29.76,NW,324,8.1,8.1,48,0.00,SCT,OVC,0.00,0.0,WeatherDisplay:10.37,2013-08-14 21:10:00,
2013-08-14 17:15:00,73.9,53.6,29.76,North,358,3.5,3.5,49,0.00,SCT,OVC,0.00,0.0,WeatherDisplay:10.37,2013-08-14 21:15:00,
2013-08-14 17:20:00,73.9,53.6,29.76,NNW,341,3.6,0.0,49,0.00,SCT,OVC,0.00,0.0,WeatherDisplay:10.37,2013-08-14 21:20:00,
2013-08-14 17:25:00,74.1,53.7,29.76,WNW,285,3.5,3.5,49,0.00,SCT,OVC,0.00,0.0,WeatherDisplay:10.37,2013-08-14 21:25:00,
2013-08-14 17:30:00,74.3,53.9,29.76,NNW,347,3.5,3.5,49,0.00,SCT,OVC,0.00,0.0,WeatherDisplay:10.37,2013-08-14 21:30:00,
2013-08-14 17:35:00,74.3,53.9,29.76,NNE,12,5.8,5.8,49,0.00,SCT,OVC,0.00,0.0,WeatherDisplay:10.37,2013-08-14 21:35:00,
2013-08-14 17:40:00,74.3,53.9,29.76,NW,323,3.0,8.0,49,0.00,SCT,OVC,0.00,0.0,WeatherDisplay:10.37,2013-08-14 21:40:00,
2013-08-14 17:45:00,74.1,53.7,29.76,NW,305,4.6,4.6,49,0.00,SCT,OVC,0.00,0.0,WeatherDisplay:10.37,2013-08-14 21:45:00,
2013-08-14 17:50:00,74.1,53.7,29.76,West,272,5.8,5.8,49,0.00,SCT,OVC,0.00,0.0,WeatherDisplay:10.37,2013-08-14 21:50:00,
2013-08-14 17:55:00,73.6,53.2,29.76,NNW,336,9.2,9.2,49,0.00,SCT,OVC,0.00,0.0,WeatherDisplay:10.37,2013-08-14 21:55:00,
2013-08-14 18:01:00,73.0,52.7,29.76,NW,322,5.8,5.8,49,0.00,SCT,OVC,0.00,0.0,WeatherDisplay:10.37,2013-08-14 22:01:00,
2013-08-14 18:06:00,72.7,52.4,29.76,NW,306,3.5,3.5,49,0.00,SCT,OVC,0.00,0.0,WeatherDisplay:10.37,2013-08-14 22:06:00,
2013-08-14 18:11:00,71.8,51.6,29.79,West,278,5.8,5.8,49,0.00,SCT,OVC,0.00,0.0,WeatherDisplay:10.37,2013-08-14 22:11:00,
2013-08-14 18:16:00,71.4,51.8,29.79,WNW,288,5.8,5.8,50,0.00,SCT,OVC,0.00,0.0,WeatherDisplay:10.37,2013-08-14 22:16:00,
2013-08-14 18:21:00,71.2,51.6,29.79,NNW,332,3.5,3.5,50,0.00,SCT,OVC,0.00,0.0,WeatherDisplay:10.37,2013-08-14 22:21:00,
2013-08-14 18:26:00,71.1,51.5,29.79,NW,316,3.5,3.5,50,0.00,SCT,OVC,0.00,0.0,WeatherDisplay:10.37,2013-08-14 22:26:00,
2013-08-14 18:31:00,70.7,51.1,29.79,WNW,296,8.1,8.1,50,0.00,SCT,OVC,0.00,0.0,WeatherDisplay:10.37,2013-08-14 22:31:00,
2013-08-14 18:36:00,70.3,51.3,29.79,NNW,333,4.6,4.6,51,0.00,SCT,OVC,0.00,0.0,WeatherDisplay:10.37,2013-08-14 22:36:00,
2013-08-14 18:41:00,70.0,51.0,29.79,WSW,239,2.3,0.0,51,0.00,SCT,OVC,0.00,0.0,WeatherDisplay:10.37,2013-08-14 22:41:00,
2013-08-14 18:46:00,69.8,50.9,29.79,NNW,329,8.1,8.1,51,0.00,SCT,OVC,0.00,0.0,WeatherDisplay:10.37,2013-08-14 22:46:00,
2013-08-14 18:51:00,69.4,51.0,29.79,WNW,302,4.6,4.6,52,0.00,SCT,OVC,0.00,0.0,WeatherDisplay:10.37,2013-08-14 22:51:00,
2013-08-14 18:56:00,69.3,51.4,29.82,North,353,3.5,3.5,53,0.00,SCT,OVC,0.00,0.0,WeatherDisplay:10.37,2013-08-14 22:56:00,
2013-08-14 19:02:00,68.9,51.1,29.82,NW,313,3.5,3.5,53,0.00,SCT,OVC,0.00,0.0,WeatherDisplay:10.37,2013-08-14 23:02:00,
2013-08-14 19:07:00,68.5,51.2,29.82,NW,311,5.8,0.0,54,0.00,SCT,OVC,0.00,0.0,WeatherDisplay:10.37,2013-08-14 23:07:00,
2013-08-14 19:12:00,68.4,51.6,29.82,WNW,303,2.3,0.0,55,0.00,SCT,OVC,0.00,0.0,WeatherDisplay:10.37,2013-08-14 23:12:00,
2013-08-14 19:17:00,68.2,51.9,29.82,NNW,327,3.5,3.5,56,0.00,SCT,OVC,0.00,0.0,WeatherDisplay:10.37,2013-08-14 23:17:00,
2013-08-14 19:22:00,67.8,51.5,29.82,NNW,331,5.8,5.8,56,0.00,SCT,OVC,0.00,0.0,WeatherDisplay:10.37,2013-08-14 23:22:00,
2013-08-14 19:27:00,67.6,51.4,29.82,NNW,343,3.5,3.5,56,0.00,SCT,OVC,0.00,0.0,WeatherDisplay:10.37,2013-08-14 23:27:00,
2013-08-14 19:32:00,67.5,51.7,29.82,NW,312,0.0,0.0,57,0.00,SCT,OVC,0.00,0.0,WeatherDisplay:10.37,2013-08-14 23:32:00,
2013-08-14 19:37:00,67.3,52.0,29.82,NNW,331,2.3,0.0,58,0.00,SCT,OVC,0.00,0.0,WeatherDisplay:10.37,2013-08-14 23:37:00,
2013-08-14 19:42:00,66.9,51.7,29.82,NW,309,0.0,0.0,58,0.00,SCT,OVC,0.00,0.0,WeatherDisplay:10.37,2013-08-14 23:42:00,
2013-08-14 19:47:00,66.7,52.0,29.82,NW,309,0.0,0.0,59,0.00,SCT,OVC,0.00,0.0,WeatherDisplay:10.37,2013-08-14 23:47:00,
2013-08-14 19:52:00,66.4,52.1,29.82,NW,309,0.0,0.0,60,0.00,SCT,OVC,0.00,0.0,WeatherDisplay:10.37,2013-08-14 23:52:00,
2013-08-14 19:57:00,66.0,51.7,29.82,NW,317,0.0,0.0,60,0.00,SCT,OVC,0.00,0.0,WeatherDisplay:10.37,2013-08-14 23:57:00,
2013-08-14 20:02:00,65.7,51.4,29.82,NW,315,0.0,0.0,60,0.00,SCT,OVC,0.00,0.0,WeatherDisplay:10.37,2013-08-15 00:02:00,
2013-08-14 20:07:00,65.5,51.7,29.82,NW,312,0.0,0.0,61,0.00,SCT,OVC,0.00,0.0,WeatherDisplay:10.37,2013-08-15 00:07:00,
2013-08-14 20:12:00,65.3,51.5,29.85,NW,315,0.0,0.0,61,0.00,SCT,OVC,0.00,0.0,WeatherDisplay:10.37,2013-08-15 00:12:00,
2013-08-14 20:17:00,64.9,51.2,29.85,NW,316,0.0,0.0,61,0.00,SCT,OVC,0.00,0.0,WeatherDisplay:10.37,2013-08-15 00:17:00,
2013-08-14 20:22:00,64.8,51.0,29.85,NW,316,0.0,0.0,61,0.00,SCT,OVC,0.00,0.0,WeatherDisplay:10.37,2013-08-15 00:22:00,
2013-08-14 20:27:00,64.4,50.7,29.85,NW,316,0.0,0.0,61,0.00,SCT,OVC,0.00,0.0,WeatherDisplay:10.37,2013-08-15 00:27:00,
2013-08-14 20:33:00,64.0,50.8,29.85,WNW,293,0.0,0.0,62,0.00,SCT,OVC,0.00,0.0,WeatherDisplay:10.37,2013-08-15 00:33:00,
2013-08-14 20:38:00,63.7,50.8,29.85,WNW,295,0.0,0.0,63,0.00,SCT,OVC,0.00,0.0,WeatherDisplay:10.37,2013-08-15 00:38:00,
2013-08-14 20:43:00,63.5,50.7,29.88,NW,314,0.0,0.0,63,0.00,SCT,OVC,0.00,0.0,WeatherDisplay:10.37,2013-08-15 00:43:00,
2013-08-14 20:48:00,63.3,50.5,29.88,NW,313,0.0,0.0,63,0.00,SCT,OVC,0.00,0.0,WeatherDisplay:10.37,2013-08-15 00:48:00,
2013-08-14 20:53:00,63.1,50.3,29.88,NW,324,0.0,0.0,63,0.00,SCT,OVC,0.00,0.0,WeatherDisplay:10.37,2013-08-15 00:53:00,
2013-08-14 20:58:00,63.0,50.2,29.88,NW,310,0.0,0.0,63,0.00,SCT,OVC,0.00,0.0,WeatherDisplay:10.37,2013-08-15 00:58:00,
2013-08-14 21:03:00,62.8,50.4,29.88,NW,319,0.0,0.0,64,0.00,SCT,OVC,0.00,0.0,WeatherDisplay:10.37,2013-08-15 01:03:00,
2013-08-14 21:08:00,62.6,50.2,29.88,NW,319,0.0,0.0,64,0.00,SCT,OVC,0.00,0.0,WeatherDisplay:10.37,2013-08-15 01:08:00,
2013-08-14 21:13:00,62.4,50.5,29.88,NW,318,0.0,0.0,65,0.00,SCT,OVC,0.00,0.0,WeatherDisplay:10.37,2013-08-15 01:13:00,
2013-08-14 21:18:00,62.2,50.7,29.88,NW,315,0.0,0.0,66,0.00,SCT,OVC,0.00,0.0,WeatherDisplay:10.37,2013-08-15 01:18:00,
2013-08-14 21:23:00,62.1,50.6,29.88,NW,322,3.5,3.5,66,0.00,SCT,OVC,0.00,0.0,WeatherDisplay:10.37,2013-08-15 01:23:00,
2013-08-14 21:28:00,61.9,50.8,29.91,NW,317,0.0,0.0,67,0.00,SCT,OVC,0.00,0.0,WeatherDisplay:10.37,2013-08-15 01:28:00,
2013-08-14 21:33:00,61.7,51.0,29.91,WNW,298,0.0,0.0,68,0.00,SCT,OVC,0.00,0.0,WeatherDisplay:10.37,2013-08-15 01:33:00,
2013-08-14 21:38:00,61.3,51.1,29.91,NW,314,0.0,0.0,69,0.00,SCT,OVC,0.00,0.0,WeatherDisplay:10.37,2013-08-15 01:38:00,
2013-08-14 21:43:00,61.2,51.3,29.91,NW,307,0.0,0.0,70,0.00,SCT,OVC,0.00,0.0,WeatherDisplay:10.37,2013-08-15 01:43:00,
2013-08-14 21:48:00,61.2,51.3,29.91,NW,307,0.0,0.0,70,0.00,SCT,OVC,0.00,0.0,WeatherDisplay:10.37,2013-08-15 01:48:00,
2013-08-14 21:53:00,61.2,51.3,29.91,NW,326,0.0,0.0,70,0.00,SCT,OVC,0.00,0.0,WeatherDisplay:10.37,2013-08-15 01:53:00,
2013-08-14 21:58:00,61.0,51.1,29.91,NW,326,0.0,0.0,70,0.00,SCT,OVC,0.00,0.0,WeatherDisplay:10.37,2013-08-15 01:58:00,
2013-08-14 22:03:00,60.8,51.3,29.91,NW,326,0.0,0.0,71,0.00,SCT,OVC,0.00,0.0,WeatherDisplay:10.37,2013-08-15 02:03:00,
2013-08-14 22:08:00,60.4,51.0,29.91,NW,319,0.0,0.0,71,0.00,SCT,OVC,0.00,0.0,WeatherDisplay:10.37,2013-08-15 02:08:00,
2013-08-14 22:13:00,60.3,51.2,29.91,NNW,327,0.0,0.0,72,0.00,SCT,OVC,0.00,0.0,WeatherDisplay:10.37,2013-08-15 02:13:00,
2013-08-14 22:18:00,60.1,51.0,29.91,NW,318,0.0,0.0,72,0.00,SCT,OVC,0.00,0.0,WeatherDisplay:10.37,2013-08-15 02:18:00,
2013-08-14 22:23:00,59.7,50.7,29.91,NW,325,0.0,0.0,72,0.00,SCT,OVC,0.00,0.0,WeatherDisplay:10.37,2013-08-15 02:23:00,
2013-08-14 22:28:00,59.5,50.9,29.91,NW,325,0.0,0.0,73,0.00,SCT,OVC,0.00,0.0,WeatherDisplay:10.37,2013-08-15 02:28:00,
2013-08-14 22:33:00,59.4,50.7,29.91,NW,325,0.0,0.0,73,0.00,SCT,OVC,0.00,0.0,WeatherDisplay:10.37,2013-08-15 02:33:00,
2013-08-14 22:38:00,59.2,50.9,29.91,NW,314,0.0,0.0,74,0.00,SCT,OVC,0.00,0.0,WeatherDisplay:10.37,2013-08-15 02:38:00,
2013-08-14 22:43:00,59.0,51.1,29.94,NW,305,0.0,0.0,75,0.00,SCT,OVC,0.00,0.0,WeatherDisplay:10.37,2013-08-15 02:43:00,
2013-08-14 22:48:00,58.8,51.3,29.94,NW,314,0.0,0.0,76,0.00,SCT,OVC,0.00,0.0,WeatherDisplay:10.37,2013-08-15 02:48:00,
2013-08-14 22:52:00,58.8,51.3,29.94,NNW,329,0.0,0.0,76,0.00,SCT,OVC,0.00,0.0,WeatherDisplay:10.37,2013-08-15 02:52:00,
2013-08-14 22:57:00,58.6,51.1,29.94,NW,316,0.0,0.0,76,0.00,SCT,OVC,0.00,0.0,WeatherDisplay:10.37,2013-08-15 02:57:00,
2013-08-14 23:02:00,58.6,51.4,29.94,NW,321,2.3,2.3,77,0.00,SCT,OVC,0.00,0.0,WeatherDisplay:10.37,2013-08-15 03:02:00,
2013-08-14 23:07:00,58.6,51.4,29.94,NW,319,2.3,2.3,77,0.00,SCT,OVC,0.00,0.0,WeatherDisplay:10.37,2013-08-15 03:07:00,
2013-08-14 23:12:00,58.6,51.4,29.94,NW,319,2.3,0.0,77,0.00,SCT,OVC,0.00,0.0,WeatherDisplay:10.37,2013-08-15 03:12:00,
2013-08-14 23:17:00,58.6,51.8,29.94,NW,319,2.3,0.0,78,0.00,SCT,OVC,0.00,0.0,WeatherDisplay:10.37,2013-08-15 03:17:00,
2013-08-14 23:22:00,58.5,51.6,29.94,NW,319,0.0,0.0,78,0.00,SCT,OVC,0.00,0.0,WeatherDisplay:10.37,2013-08-15 03:22:00,
2013-08-14 23:27:00,58.3,51.4,29.94,NW,318,0.0,0.0,78,0.00,SCT,OVC,0.00,0.0,WeatherDisplay:10.37,2013-08-15 03:27:00,
2013-08-14 23:32:00,58.3,51.4,29.94,NW,318,0.0,0.0,78,0.00,SCT,OVC,0.00,0.0,WeatherDisplay:10.37,2013-08-15 03:32:00,
2013-08-14 23:37:00,58.1,51.3,29.94,NW,314,0.0,0.0,78,0.00,SCT,OVC,0.00,0.0,WeatherDisplay:10.37,2013-08-15 03:37:00,
2013-08-14 23:42:00,57.9,51.1,29.94,NW,315,0.0,0.0,78,0.00,SCT,OVC,0.00,0.0,WeatherDisplay:10.37,2013-08-15 03:42:00,
2013-08-14 23:47:00,57.7,51.3,29.94,NW,315,0.0,0.0,79,0.00,SCT,OVC,0.00,0.0,WeatherDisplay:10.37,2013-08-15 03:47:00,
2013-08-14 23:52:00,57.6,51.1,29.94,NW,314,0.0,0.0,79,0.00,SCT,OVC,0.00,0.0,WeatherDisplay:10.37,2013-08-15 03:52:00,
2013-08-14 23:57:00,57.6,51.4,29.97,NW,315,0.0,0.0,80,0.00,SCT,OVC,0.00,0.0,WeatherDisplay:10.37,2013-08-15 03:57:00,